Home > Weather > Mansfield > Past weeks

Flag for USA Past Weather in Mansfield, Texas, USA — Yesterday and Last 2 Weeks

Now
84 °F

Sunny.


Feels Like: 90 °F
Forecast: 78 / 98 °F
Wind: 10 mph from Southwest

Location: Burleson-Rendon

Current Time: Jul 30, 2016 at 9:56:23 AM

Latest Report: Jul 30, 2016 at 8:50 AM


Visibility: 10 mi

Pressure: 30.03 "Hg

Humidity: 66%

Dew Point: 72 °F

Location of MansfieldLocation

Past Weather in Mansfield — Graph

°F

Mansfield Temperature Yesterday

Maximum temperature yesterday: 93 °F (at 4:55 PM)
Minimum temperature yesterday: 75 °F (at 6:48 AM)
Average temperature yesterday: 81 °F

High & Low Weather Summary for the Past Weeks

 TemperatureHumidityPressure
High100 °F (Jul 22, 3:48 PM)94% (Jul 26, 5:35 AM)30.22 "Hg (Jul 26, 5:35 AM)
Low72 °F (Jul 26, 6:46 AM)29% (Jul 22, 4:50 PM)29.88 "Hg (Jul 23, 7:55 PM)
Average83 °F68%30.02 "Hg
* Reported Jul 15 7:46 AM — Jul 30 7:50 AM, Mansfield, Weather by CustomWeather, © 2016

Note: Actual official high and low records may vary slightly from our data, if they occured in-between our weather recording intervals... More about our weather records

Advertising

Mansfield Weather History for the Previous 24 Hours

Scroll right to see more
 ConditionsComfort  
Time TempWeatherWind HumidityBarometerVisibility
7:50 AM
Sat, Jul 30
81 °FSunny.6 mph74%30.02 "Hg10 mi
6:52 AM79 °FClear.3 mph79%30.02 "Hg10 mi
6:35 AM78 °FClear.5 mph80%30.02 "Hg10 mi
6:15 AM78 °FClear.5 mph79%30.00 "Hg10 mi
5:55 AM78 °FClear.6 mph76%29.99 "Hg10 mi
5:15 AM78 °FClear.8 mph75%29.99 "Hg10 mi
4:55 AM78 °FClear.8 mph76%29.98 "Hg10 mi
4:15 AM78 °FClear.6 mph77%29.99 "Hg10 mi
3:55 AM78 °FClear.7 mph77%29.99 "Hg10 mi
3:35 AM78 °FClear.6 mph76%29.99 "Hg10 mi
3:15 AM78 °FClear.7 mph76%29.99 "Hg10 mi
2:55 AM79 °FClear.7 mph75%29.99 "Hg10 mi
2:35 AM80 °FClear.8 mph75%29.99 "Hg10 mi
2:15 AM79 °FClear.6 mph74%30.00 "Hg10 mi
1:55 AM79 °FClear.6 mph73%30.00 "Hg10 mi
1:35 AM79 °FClear.7 mph73%30.00 "Hg10 mi
1:15 AM80 °FClear.6 mph70%30.00 "Hg10 mi
12:55 AM79 °FClear.6 mph71%30.00 "Hg10 mi
12:35 AM79 °FClear.5 mph74%30.00 "Hg10 mi
12:15 AM78 °FClear.3 mph75%29.99 "Hg10 mi
11:55 PM
Fri, Jul 29
79 °FClear.3 mph74%29.99 "Hg10 mi
11:15 PM81 °FClear.No wind67%29.97 "Hg10 mi
10:55 PM82 °FClear.6 mph66%29.96 "Hg10 mi
10:15 PM83 °FClear.5 mph63%29.95 "Hg10 mi
9:55 PM84 °FClear.6 mph60%29.94 "Hg10 mi
9:35 PM84 °FClear.6 mph60%29.93 "Hg10 mi
9:15 PM85 °FSunny.6 mph58%29.93 "Hg10 mi
8:55 PM86 °FSunny.5 mph56%29.93 "Hg10 mi
8:15 PM89 °FSunny.8 mph52%29.92 "Hg10 mi
7:55 PM91 °FSunny.8 mph48%29.92 "Hg10 mi
5:49 PM93 °FSunny.9 mph41%29.92 "Hg10 mi
4:55 PM93 °FSunny.10 mph41%29.95 "Hg10 mi
3:51 PM91 °FScattered clouds.8 mph52%29.98 "Hg10 mi
2:54 PM91 °FScattered clouds.9 mph52%29.99 "Hg10 mi
1:50 PM90 °FScattered clouds.12 mph55%30.03 "Hg10 mi
12:47 PM88 °FPartly sunny.10 mph59%30.06 "Hg10 mi
11:57 AM90 °FScattered clouds.9 mph52%30.06 "Hg10 mi
10:55 AM88 °FScattered clouds.12 mph55%30.05 "Hg10 mi
9:50 AM84 °FScattered clouds.8 mph66%30.06 "Hg10 mi
Weather by CustomWeather, © 2016

See weather overviewHow to use our weather pages